| time (UTC) | temp F | wind direction | speed MPH | gust MPH | rain 1hr in | rain 24hr in | rain mn in | humidity % | barometer mb |
| 20260507142018 | 58 | 41 | 3.0 | 7.0 | 0.00 | 0.00 | 0.14 | 58 | 1012.3 |
| 20260507141519 | 57 | 72 | 1.0 | 2.0 | 0.00 | 0.00 | 0.14 | 59 | 1012.3 |
| 20260507141018 | 56 | 31 | 3.0 | 7.0 | 0.00 | 0.00 | 0.14 | 59 | 1012.3 |
| 20260507140518 | 56 | 33 | 2.0 | 4.0 | 0.00 | 0.00 | 0.14 | 62 | 1012.3 |
| 20260507140018 | 55 | 30 | 5.0 | 8.0 | 0.00 | 0.00 | 0.14 | 62 | 1012.4 |
| 20260507135519 | 55 | 49 | 2.0 | 4.0 | 0.00 | 0.00 | 0.14 | 64 | 1012.4 |
| 20260507135019 | 55 | 46 | 2.0 | 6.0 | 0.00 | 0.00 | 0.14 | 64 | 1012.4 |
| 20260507134519 | 55 | 31 | 3.0 | 7.0 | 0.00 | 0.00 | 0.14 | 63 | 1012.5 |
| 20260507134018 | 56 | 47 | 3.0 | 6.0 | 0.00 | 0.00 | 0.14 | 64 | 1012.4 |
| 20260507133517 | 56 | 20 | 3.0 | 6.0 | 0.00 | 0.00 | 0.14 | 65 | 1012.5 |
| 20260507133018 | 55 | 24 | 1.0 | 3.0 | 0.00 | 0.00 | 0.14 | 68 | 1012.4 |
| 20260507132517 | 55 | 12 | 0.0 | 2.0 | 0.00 | 0.00 | 0.14 | 68 | 1012.4 |
| 20260507132017 | 54 | 348 | 1.0 | 4.0 | 0.00 | 0.00 | 0.14 | 68 | 1012.3 |
| 20260507131518 | 54 | 0 | 0.0 | 2.0 | 0.00 | 0.00 | 0.14 | 70 | 1012.3 |
| 20260507131018 | 54 | 8 | 1.0 | 2.0 | 0.00 | 0.00 | 0.14 | 71 | 1012.4 |
| 20260507130517 | 54 | 9 | 2.0 | 5.0 | 0.00 | 0.00 | 0.14 | 71 | 1012.4 |
| 20260507130017 | 54 | 359 | 1.0 | 2.0 | 0.00 | 0.00 | 0.14 | 72 | 1012.4 |
| 20260507125517 | 54 | 16 | 3.0 | 5.0 | 0.00 | 0.00 | 0.14 | 73 | 1012.4 |
| 20260507125017 | 53 | 15 | 2.0 | 4.0 | 0.00 | 0.00 | 0.14 | 74 | 1012.3 |
| 20260507124517 | 53 | 5 | 1.0 | 4.0 | 0.00 | 0.00 | 0.14 | 75 | 1012.3 |
| 20260507124017 | 53 | 30 | 2.0 | 2.0 | 0.00 | 0.00 | 0.14 | 76 | 1012.4 |
| 20260507123517 | 53 | 23 | 1.0 | 4.0 | 0.00 | 0.00 | 0.14 | 77 | 1012.6 |
| 20260507123018 | 53 | 54 | 2.0 | 4.0 | 0.00 | 0.00 | 0.14 | 79 | 1012.4 |
| 20260507122517 | 53 | 16 | 1.0 | 2.0 | 0.00 | 0.00 | 0.14 | 79 | 1012.3 |
| 20260507122025 | 53 | 342 | 1.0 | 3.0 | 0.00 | 0.00 | 0.14 | 82 | 1012.3 |
| 20260507121517 | 53 | 9 | 3.0 | 5.0 | 0.00 | 0.00 | 0.14 | 81 | 1012.1 |
| 20260507121018 | 53 | 7 | 3.0 | 5.0 | 0.00 | 0.00 | 0.14 | 82 | 1012.2 |
| 20260507120518 | 53 | 8 | 2.0 | 4.0 | 0.00 | 0.00 | 0.14 | 83 | 1012.1 |
| 20260507120018 | 53 | 307 | 1.0 | 2.0 | 0.00 | 0.00 | 0.14 | 85 | 1012.1 |
| 20260507115518 | 53 | 11 | 0.0 | 2.0 | 0.00 | 0.00 | 0.14 | 85 | 1012.1 |
| 20260507115017 | 53 | 15 | 2.0 | 4.0 | 0.00 | 0.00 | 0.14 | 84 | 1012.0 |
| 20260507114517 | 53 | 4 | 1.0 | 2.0 | 0.00 | 0.00 | 0.14 | 85 | 1012.1 |
| 20260507114017 | 53 | 26 | 1.0 | 3.0 | 0.00 | 0.00 | 0.14 | 85 | 1012.2 |
| 20260507113518 | 53 | 7 | 1.0 | 3.0 | 0.00 | 0.00 | 0.14 | 84 | 1012.2 |
| 20260507113017 | 53 | 1 | 0.0 | 1.0 | 0.00 | 0.00 | 0.14 | 84 | 1012.3 |
| 20260507112517 | 53 | 0 | 1.0 | 2.0 | 0.00 | 0.00 | 0.14 | 84 | 1012.0 |
| 20260507112017 | 53 | 0 | 0.0 | 2.0 | 0.00 | 0.00 | 0.14 | 84 | 1011.9 |
| 20260507111517 | 53 | 0 | 1.0 | 2.0 | 0.00 | 0.00 | 0.14 | 84 | 1011.9 |
| 20260507111017 | 53 | 42 | 0.0 | 1.0 | 0.00 | 0.00 | 0.14 | 84 | 1011.8 |
| 20260507110518 | 53 | 14 | 1.0 | 2.0 | 0.00 | 0.00 | 0.14 | 83 | 1011.8 |
| 20260507110017 | 53 | 14 | 2.0 | 3.0 | 0.00 | 0.00 | 0.14 | 84 | 1011.8 |
| 20260507105517 | 53 | 21 | 0.0 | 2.0 | 0.00 | 0.00 | 0.14 | 84 | 1011.6 |
| 20260507105017 | 52 | 353 | 1.0 | 2.0 | 0.00 | 0.00 | 0.14 | 85 | 1011.5 |
| 20260507104517 | 52 | 336 | 0.0 | 2.0 | 0.00 | 0.00 | 0.14 | 84 | 1011.4 |
| 20260507104018 | 52 | 20 | 0.0 | 1.0 | 0.00 | 0.00 | 0.14 | 84 | 1011.3 |
| 20260507103517 | 52 | 291 | 0.0 | 1.0 | 0.00 | 0.00 | 0.14 | 84 | 1011.3 |
| 20260507103017 | 52 | 358 | 1.0 | 4.0 | 0.00 | 0.00 | 0.14 | 84 | 1011.3 |
| 20260507102517 | 52 | 358 | 2.0 | 2.0 | 0.00 | 0.00 | 0.14 | 85 | 1011.3 |
| 20260507102018 | 52 | 5 | 1.0 | 2.0 | 0.00 | 0.00 | 0.14 | 85 | 1011.1 |
| 20260507101518 | 52 | 356 | 1.0 | 2.0 | 0.00 | 0.00 | 0.14 | 84 | 1011.0 |
| 20260507101018 | 52 | 3 | 0.0 | 2.0 | 0.00 | 0.00 | 0.14 | 85 | 1010.9 |
| 20260507100517 | 51 | 347 | 0.0 | 1.0 | 0.00 | 0.00 | 0.14 | 86 | 1010.9 |
| 20260507100017 | 51 | 350 | 1.0 | 3.0 | 0.00 | 0.00 | 0.14 | 86 | 1010.9 |
| 20260507095518 | 51 | 352 | 0.0 | 2.0 | 0.01 | 0.00 | 0.14 | 87 | 1010.9 |
| 20260507095019 | 51 | 354 | 0.0 | 2.0 | 0.01 | 0.00 | 0.14 | 87 | 1011.1 |
| 20260507094518 | 51 | 10 | 0.0 | 2.0 | 0.01 | 0.00 | 0.14 | 87 | 1011.0 |
| 20260507094018 | 51 | 348 | 0.0 | 1.0 | 0.01 | 0.00 | 0.14 | 87 | 1011.0 |
| 20260507093518 | 51 | 3 | 0.0 | 1.0 | 0.01 | 0.00 | 0.14 | 87 | 1011.0 |
| 20260507093017 | 51 | 354 | 2.0 | 2.0 | 0.00 | 0.00 | 0.14 | 88 | 1010.8 |
| 20260507092518 | 51 | 346 | 0.0 | 1.0 | 0.00 | 0.00 | 0.14 | 88 | 1010.8 |
| 20260507092018 | 51 | 358 | 2.0 | 3.0 | 0.00 | 0.00 | 0.13 | 87 | 1010.8 |
| 20260507091517 | 51 | 337 | 1.0 | 3.0 | 0.00 | 0.00 | 0.13 | 88 | 1010.8 |
| 20260507091017 | 51 | 11 | 0.0 | 1.0 | 0.00 | 0.00 | 0.13 | 88 | 1010.7 |
| 20260507090517 | 51 | 7 | 1.0 | 2.0 | 0.00 | 0.00 | 0.13 | 87 | 1010.7 |
| 20260507090017 | 51 | 9 | 1.0 | 2.0 | 0.00 | 0.00 | 0.13 | 87 | 1010.7 |
| 20260507085518 | 51 | 359 | 2.0 | 4.0 | 0.00 | 0.00 | 0.13 | 86 | 1010.6 |
| 20260507085017 | 51 | 8 | 2.0 | 4.0 | 0.00 | 0.00 | 0.13 | 86 | 1010.6 |
| 20260507084517 | 51 | 6 | 1.0 | 2.0 | 0.00 | 0.00 | 0.13 | 87 | 1010.7 |
| 20260507084017 | 51 | 167 | 0.0 | 1.0 | 0.00 | 0.00 | 0.13 | 87 | 1010.6 |
| 20260507083517 | 51 | 4 | 2.0 | 3.0 | 0.00 | 0.00 | 0.13 | 87 | 1010.5 |
| 20260507083017 | 51 | 11 | 3.0 | 4.0 | 0.00 | 0.00 | 0.13 | 86 | 1010.5 |
| 20260507082519 | 52 | 2 | 1.0 | 2.0 | 0.00 | 0.00 | 0.13 | 87 | 1010.4 |
| 20260507082017 | 52 | 17 | 1.0 | 3.0 | 0.00 | 0.00 | 0.13 | 86 | 1010.4 |
| 20260507081518 | 52 | 357 | 1.0 | 2.0 | 0.00 | 0.00 | 0.13 | 86 | 1010.6 |
| 20260507081018 | 52 | 10 | 2.0 | 5.0 | 0.00 | 0.00 | 0.13 | 86 | 1010.7 |
| 20260507080517 | 52 | 14 | 3.0 | 6.0 | 0.00 | 0.00 | 0.13 | 87 | 1010.7 |
| 20260507080017 | 52 | 352 | 2.0 | 4.0 | 0.00 | 0.00 | 0.13 | 87 | 1010.6 |
| 20260507075518 | 52 | 8 | 1.0 | 2.0 | 0.00 | 0.00 | 0.13 | 88 | 1010.7 |
| 20260507075017 | 52 | 12 | 2.0 | 4.0 | 0.00 | 0.00 | 0.13 | 87 | 1010.5 |
| 20260507074517 | 52 | 5 | 3.0 | 5.0 | 0.00 | 0.00 | 0.13 | 87 | 1010.7 |
| 20260507074017 | 52 | 2 | 2.0 | 4.0 | 0.00 | 0.00 | 0.13 | 88 | 1010.9 |
| 20260507073517 | 52 | 26 | 3.0 | 6.0 | 0.00 | 0.00 | 0.13 | 87 | 1011.0 |
| 20260507073018 | 52 | 4 | 3.0 | 6.0 | 0.00 | 0.00 | 0.13 | 88 | 1010.9 |
| 20260507072517 | 52 | 16 | 4.0 | 6.0 | 0.00 | 0.00 | 0.13 | 87 | 1010.9 |
| 20260507072017 | 52 | 20 | 3.0 | 6.0 | 0.00 | 0.00 | 0.13 | 87 | 1011.1 |
| 20260507071518 | 52 | 21 | 3.0 | 6.0 | 0.00 | 0.00 | 0.13 | 87 | 1011.0 |
| 20260507071018 | 52 | 26 | 6.0 | 9.0 | 0.01 | 0.00 | 0.13 | 86 | 1011.0 |
| 20260507070517 | 52 | 15 | 4.0 | 8.0 | 0.01 | 0.00 | 0.13 | 87 | 1011.3 |
| 20260507070017 | 52 | 30 | 6.0 | 9.0 | 0.01 | 0.00 | 0.11 | 87 | 1011.0 |
| 20260507065522 | 52 | 20 | 4.0 | 6.0 | 0.07 | 0.00 | 0.11 | 88 | 1011.1 |
| 20260507065019 | 53 | 22 | 2.0 | 4.0 | 0.07 | 0.00 | 0.11 | 88 | 1010.6 |
| 20260507064517 | 53 | 32 | 4.0 | 8.0 | 0.08 | 0.00 | 0.11 | 88 | 1010.8 |
| 20260507064017 | 53 | 21 | 3.0 | 4.0 | 0.08 | 0.00 | 0.11 | 88 | 1010.7 |
| 20260507063518 | 53 | 11 | 2.0 | 5.0 | 0.08 | 0.00 | 0.11 | 89 | 1010.5 |
| 20260507063017 | 53 | 21 | 5.0 | 8.0 | 0.12 | 0.00 | 0.11 | 89 | 1010.4 |
| 20260507062518 | 53 | 11 | 2.0 | 4.0 | 0.13 | 0.00 | 0.11 | 90 | 1010.3 |
| 20260507062017 | 53 | 2 | 2.0 | 4.0 | 0.16 | 0.00 | 0.14 | 90 | 1010.7 |
| 20260507061517 | 53 | 14 | 2.0 | 3.0 | 0.16 | 0.00 | 0.14 | 90 | 1010.7 |
| 20260507061017 | 53 | 21 | 2.0 | 3.0 | 0.15 | 0.00 | 0.14 | 90 | 1011.1 |
| 20260507060518 | 54 | 8 | 2.0 | 3.0 | 0.15 | 0.00 | 0.17 | 90 | 1010.7 |
| 20260507060017 | 54 | 20 | 3.0 | 4.0 | 0.07 | 0.00 | 0.16 | 89 | 1011.2 |
| 20260507055517 | 54 | 18 | 4.0 | 5.0 | 0.06 | 0.00 | 0.15 | 89 | 1010.6 |
| 20260507055017 | 55 | 0 | 3.0 | 6.0 | 0.06 | 0.00 | 0.15 | 88 | 1010.5 |
| 20260507054518 | 55 | 26 | 3.0 | 6.0 | 0.05 | 0.00 | 0.07 | 88 | 1010.9 |
| 20260507054018 | 55 | 27 | 2.0 | 5.0 | 0.05 | 0.00 | 0.05 | 87 | 1010.6 |
| 20260507053517 | 56 | 32 | 1.0 | 4.0 | 0.05 | 0.00 | 0.05 | 87 | 1010.1 |
| 20260507053019 | 56 | 23 | 2.0 | 4.0 | 0.03 | 0.00 | 0.05 | 86 | 1010.1 |
| 20260507052517 | 57 | 53 | 2.0 | 4.0 | 0.01 | 0.00 | 0.04 | 85 | 1009.6 |
| 20260507052017 | 57 | 36 | 3.0 | 5.0 | 0.01 | 0.00 | 0.02 | 82 | 1010.7 |
| 20260507051517 | 57 | 30 | 2.0 | 4.0 | 0.01 | 0.00 | 0.01 | 81 | 1010.4 |
| 20260507051017 | 57 | 14 | 2.0 | 4.0 | 0.01 | 0.00 | 0.01 | 80 | 1010.0 |
| 20260507050517 | 57 | 25 | 3.0 | 6.0 | 0.01 | 0.00 | 0.01 | 82 | 1009.9 |
| 20260507050020 | 57 | 60 | 1.0 | 5.0 | 0.01 | 0.00 | 0.01 | 84 | 1009.7 |
| 20260507045517 | 58 | 39 | 3.0 | 5.0 | 0.01 | 0.00 | 0.01 | 83 | 1009.7 |
| 20260507045018 | 58 | 36 | 2.0 | 5.0 | 0.01 | 0.00 | 0.01 | 84 | 1009.6 |
| 20260507044517 | 58 | 24 | 3.0 | 6.0 | 0.01 | 0.00 | 0.01 | 85 | 1009.4 |
| 20260507044017 | 58 | 56 | 0.0 | 2.0 | 0.01 | 0.00 | 0.01 | 85 | 1009.5 |
| 20260507043518 | 58 | 37 | 1.0 | 2.0 | 0.02 | 0.00 | 0.01 | 85 | 1009.7 |
| 20260507043017 | 58 | 359 | 2.0 | 5.0 | 0.01 | 0.00 | 0.01 | 85 | 1009.7 |
| 20260507042517 | 58 | 22 | 2.0 | 6.0 | 0.01 | 0.00 | 0.01 | 85 | 1009.7 |
| 20260507041533 | 59 | 28 | 3.0 | 6.0 | 0.01 | 0.00 | 0.00 | 85 | 1009.2 |
| 20260507041018 | 59 | 23 | 2.0 | 6.0 | 0.01 | 0.00 | 0.00 | 88 | 1009.8 |
| 20260507040519 | 60 | 65 | 0.0 | 1.0 | 0.01 | 0.00 | 0.00 | 88 | 1009.9 |
| 20260507040018 | 60 | 43 | 2.0 | 3.0 | 0.01 | 0.00 | 0.09 | 87 | 1009.8 |
| 20260507035518 | 61 | 27 | 3.0 | 8.0 | 0.01 | 0.00 | 0.09 | 87 | 1009.6 |
| 20260507035018 | 63 | 26 | 3.0 | 5.0 | 0.01 | 0.00 | 0.09 | 86 | 1009.5 |
| 20260507034518 | 64 | 43 | 2.0 | 4.0 | 0.02 | 0.00 | 0.09 | 88 | 1009.4 |
| 20260507034017 | 64 | 41 | 2.0 | 4.0 | 0.02 | 0.00 | 0.09 | 87 | 1009.2 |
| 20260507033517 | 65 | 115 | 1.0 | 2.0 | 0.01 | 0.00 | 0.08 | 87 | 1009.3 |
| 20260507033017 | 65 | 52 | 3.0 | 5.0 | 0.01 | 0.00 | 0.08 | 85 | 1009.3 |
| 20260507032519 | 65 | 63 | 1.0 | 2.0 | 0.01 | 0.00 | 0.07 | 84 | 1009.3 |
| 20260507032017 | 65 | 45 | 3.0 | 6.0 | 0.01 | 0.00 | 0.07 | 85 | 1009.2 |
| 20260507031519 | 65 | 55 | 1.0 | 3.0 | 0.01 | 0.00 | 0.07 | 89 | 1009.0 |
| 20260507031018 | 66 | 34 | 2.0 | 2.0 | 0.01 | 0.00 | 0.07 | 88 | 1008.9 |
| 20260507030517 | 66 | 82 | 0.0 | 2.0 | 0.01 | 0.00 | 0.07 | 88 | 1008.9 |
| 20260507030017 | 66 | 35 | 1.0 | 4.0 | 0.01 | 0.00 | 0.07 | 87 | 1008.8 |
| 20260507025518 | 66 | 139 | 1.0 | 2.0 | 0.01 | 0.00 | 0.07 | 87 | 1008.9 |
| 20260507025017 | 67 | 26 | 1.0 | 2.0 | 0.00 | 0.00 | 0.08 | 86 | 1009.0 |
| 20260507024517 | 67 | 70 | 1.0 | 2.0 | 0.00 | 0.00 | 0.08 | 84 | 1009.1 |
| 20260507024017 | 68 | 110 | 2.0 | 5.0 | 0.00 | 0.00 | 0.07 | 80 | 1009.2 |
| 20260507023518 | 68 | 263 | 1.0 | 2.0 | 0.00 | 0.00 | 0.06 | 79 | 1009.0 |
| 20260507023017 | 68 | 214 | 0.0 | 3.0 | 0.00 | 0.00 | 0.06 | 79 | 1008.9 |
| 20260507022517 | 68 | 250 | 2.0 | 6.0 | 0.00 | 0.00 | 0.06 | 79 | 1008.7 |
| 20260507022018 | 68 | 261 | 3.0 | 6.0 | 0.00 | 0.00 | 0.06 | 79 | 1008.8 |
| 20260507021518 | 68 | 250 | 2.0 | 3.0 | 0.00 | 0.00 | 0.06 | 78 | 1008.9 |
| 20260507021017 | 68 | 253 | 2.0 | 4.0 | 0.00 | 0.00 | 0.06 | 78 | 1009.0 |
| 20260507020517 | 68 | 248 | 2.0 | 4.0 | 0.00 | 0.00 | 0.06 | 78 | 1008.9 |
| 20260507020017 | 68 | 265 | 2.0 | 4.0 | 0.00 | 0.00 | 0.06 | 78 | 1009.0 |
| 20260507015517 | 68 | 252 | 2.0 | 4.0 | 0.00 | 0.00 | 0.06 | 78 | 1009.0 |
| 20260507015017 | 68 | 248 | 2.0 | 6.0 | 0.00 | 0.00 | 0.06 | 78 | 1008.9 |
| 20260507014517 | 68 | 257 | 4.0 | 11.0 | 0.00 | 0.00 | 0.06 | 78 | 1008.8 |
| 20260507014017 | 68 | 238 | 2.0 | 4.0 | 0.00 | 0.00 | 0.06 | 78 | 1008.8 |
| 20260507013518 | 68 | 245 | 3.0 | 7.0 | 0.00 | 0.00 | 0.06 | 78 | 1009.0 |
| 20260507013018 | 68 | 225 | 2.0 | 6.0 | 0.00 | 0.00 | 0.06 | 78 | 1009.0 |
| 20260507012518 | 68 | 262 | 3.0 | 6.0 | 0.00 | 0.00 | 0.06 | 77 | 1008.8 |
| 20260507012017 | 68 | 239 | 2.0 | 4.0 | 0.00 | 0.00 | 0.06 | 77 | 1008.8 |
| 20260507011517 | 69 | 247 | 3.0 | 6.0 | 0.00 | 0.00 | 0.06 | 77 | 1008.8 |
| 20260507010520 | 69 | 250 | 2.0 | 5.0 | 0.00 | 0.00 | 0.06 | 77 | 1008.9 |
| 20260507010022 | 69 | 248 | 2.0 | 6.0 | 0.00 | 0.00 | 0.06 | 76 | 1009.0 |
| 20260507005517 | 69 | 270 | 4.0 | 8.0 | 0.00 | 0.00 | 0.06 | 76 | 1009.0 |
| 20260507005018 | 69 | 258 | 5.0 | 8.0 | 0.00 | 0.00 | 0.06 | 76 | 1009.0 |
| 20260507004518 | 69 | 242 | 2.0 | 4.0 | 0.00 | 0.00 | 0.06 | 76 | 1008.8 |
| 20260507004017 | 69 | 247 | 2.0 | 4.0 | 0.00 | 0.00 | 0.06 | 76 | 1008.5 |
| 20260507003517 | 69 | 266 | 2.0 | 4.0 | 0.00 | 0.00 | 0.06 | 76 | 1008.4 |
| 20260507003018 | 69 | 226 | 2.0 | 4.0 | 0.00 | 0.00 | 0.06 | 76 | 1008.3 |
| 20260507002517 | 69 | 244 | 2.0 | 4.0 | 0.00 | 0.00 | 0.06 | 75 | 1008.2 |
| 20260507002020 | 69 | 255 | 3.0 | 4.0 | 0.00 | 0.00 | 0.06 | 75 | 1008.3 |
| 20260507001517 | 69 | 253 | 3.0 | 7.0 | 0.00 | 0.00 | 0.06 | 75 | 1008.3 |
| 20260507001017 | 69 | 237 | 2.0 | 4.0 | 0.00 | 0.00 | 0.06 | 74 | 1008.3 |
| 20260507000518 | 69 | 252 | 3.0 | 6.0 | 0.00 | 0.00 | 0.06 | 74 | 1008.2 |
| 20260507000018 | 69 | 258 | 3.0 | 6.0 | 0.00 | 0.00 | 0.06 | 74 | 1008.2 |
| 20260506235517 | 69 | 234 | 3.0 | 8.0 | 0.00 | 0.00 | 0.06 | 74 | 1008.2 |
| 20260506235017 | 70 | 233 | 3.0 | 7.0 | 0.00 | 0.00 | 0.06 | 74 | 1008.2 |
| 20260506234517 | 70 | 239 | 4.0 | 9.0 | 0.00 | 0.00 | 0.06 | 74 | 1008.2 |
| 20260506234018 | 70 | 256 | 4.0 | 6.0 | 0.00 | 0.00 | 0.06 | 74 | 1008.1 |
| 20260506233517 | 70 | 249 | 3.0 | 7.0 | 0.00 | 0.00 | 0.06 | 74 | 1008.1 |
| 20260506233020 | 70 | 275 | 1.0 | 4.0 | 0.00 | 0.00 | 0.06 | 73 | 1008.1 |
| 20260506232518 | 70 | 260 | 2.0 | 4.0 | 0.00 | 0.00 | 0.06 | 73 | 1008.0 |
| 20260506232017 | 70 | 263 | 2.0 | 5.0 | 0.00 | 0.00 | 0.06 | 73 | 1008.0 |
| 20260506231518 | 70 | 242 | 4.0 | 10.0 | 0.00 | 0.00 | 0.06 | 73 | 1008.1 |
| 20260506231017 | 70 | 257 | 2.0 | 8.0 | 0.00 | 0.00 | 0.06 | 73 | 1008.1 |
| 20260506230517 | 70 | 262 | 4.0 | 9.0 | 0.00 | 0.00 | 0.06 | 73 | 1008.1 |
| 20260506230017 | 70 | 245 | 3.0 | 5.0 | 0.00 | 0.00 | 0.06 | 73 | 1008.1 |
| 20260506225518 | 70 | 236 | 3.0 | 6.0 | 0.00 | 0.00 | 0.06 | 72 | 1007.9 |
| 20260506225017 | 70 | 228 | 2.0 | 4.0 | 0.00 | 0.00 | 0.06 | 72 | 1008.0 |
| 20260506224517 | 70 | 250 | 4.0 | 7.0 | 0.00 | 0.00 | 0.06 | 72 | 1008.1 |
| 20260506224017 | 70 | 256 | 5.0 | 8.0 | 0.00 | 0.00 | 0.06 | 72 | 1008.1 |
| 20260506223517 | 70 | 237 | 4.0 | 6.0 | 0.00 | 0.00 | 0.06 | 72 | 1008.0 |
| 20260506223017 | 70 | 260 | 3.0 | 8.0 | 0.00 | 0.00 | 0.06 | 71 | 1007.9 |
| 20260506222525 | 70 | 258 | 3.0 | 9.0 | 0.00 | 0.00 | 0.06 | 72 | 1007.9 |
| 20260506222018 | 70 | 257 | 3.0 | 6.0 | 0.00 | 0.00 | 0.06 | 72 | 1007.9 |
| 20260506221518 | 70 | 253 | 5.0 | 9.0 | 0.00 | 0.00 | 0.06 | 72 | 1007.9 |
| 20260506221017 | 70 | 252 | 3.0 | 9.0 | 0.00 | 0.00 | 0.06 | 72 | 1008.0 |
| 20260506220517 | 70 | 247 | 6.0 | 13.0 | 0.00 | 0.00 | 0.06 | 71 | 1007.9 |
| 20260506220018 | 71 | 240 | 5.0 | 12.0 | 0.00 | 0.00 | 0.06 | 71 | 1007.9 |
| 20260506215517 | 70 | 239 | 4.0 | 8.0 | 0.00 | 0.00 | 0.06 | 71 | 1007.8 |
| 20260506215017 | 70 | 242 | 5.0 | 12.0 | 0.00 | 0.00 | 0.06 | 71 | 1007.8 |
| 20260506214517 | 71 | 249 | 7.0 | 12.0 | 0.00 | 0.00 | 0.06 | 71 | 1007.9 |
| 20260506214017 | 71 | 250 | 5.0 | 9.0 | 0.00 | 0.00 | 0.06 | 71 | 1007.9 |
| 20260506213519 | 71 | 238 | 4.0 | 7.0 | 0.00 | 0.00 | 0.06 | 70 | 1007.9 |
| 20260506213018 | 72 | 241 | 3.0 | 5.0 | 0.00 | 0.00 | 0.06 | 69 | 1007.8 |
| 20260506212518 | 72 | 247 | 5.0 | 11.0 | 0.00 | 0.00 | 0.06 | 69 | 1007.8 |
| 20260506212017 | 72 | 245 | 4.0 | 6.0 | 0.00 | 0.00 | 0.06 | 69 | 1007.8 |
| 20260506211518 | 71 | 268 | 2.0 | 4.0 | 0.00 | 0.00 | 0.06 | 69 | 1007.7 |
| 20260506211017 | 71 | 253 | 2.0 | 4.0 | 0.00 | 0.00 | 0.06 | 70 | 1007.8 |
| 20260506210518 | 71 | 223 | 4.0 | 7.0 | 0.00 | 0.00 | 0.06 | 70 | 1007.7 |
| 20260506210017 | 71 | 249 | 3.0 | 7.0 | 0.00 | 0.00 | 0.06 | 71 | 1007.7 |
| 20260506205518 | 70 | 271 | 4.0 | 11.0 | 0.00 | 0.00 | 0.06 | 71 | 1007.7 |
| 20260506205018 | 70 | 257 | 1.0 | 3.0 | 0.00 | 0.00 | 0.06 | 71 | 1007.6 |
| 20260506204518 | 70 | 239 | 4.0 | 6.0 | 0.00 | 0.00 | 0.06 | 70 | 1007.5 |
| 20260506204017 | 70 | 269 | 5.0 | 8.0 | 0.00 | 0.00 | 0.06 | 71 | 1007.4 |
| 20260506203520 | 69 | 245 | 5.0 | 8.0 | 0.00 | 0.00 | 0.06 | 72 | 1007.4 |
| 20260506203017 | 69 | 253 | 8.0 | 12.0 | 0.00 | 0.00 | 0.06 | 72 | 1007.4 |
| 20260506202518 | 69 | 261 | 5.0 | 10.0 | 0.00 | 0.00 | 0.06 | 72 | 1007.4 |
| 20260506202018 | 68 | 256 | 5.0 | 11.0 | 0.00 | 0.00 | 0.06 | 73 | 1007.5 |
| 20260506201519 | 68 | 246 | 6.0 | 9.0 | 0.00 | 0.00 | 0.06 | 74 | 1007.5 |
| 20260506201018 | 68 | 249 | 8.0 | 12.0 | 0.00 | 0.00 | 0.06 | 74 | 1007.6 |
| 20260506200519 | 68 | 243 | 3.0 | 5.0 | 0.00 | 0.00 | 0.06 | 74 | 1007.6 |
| 20260506200018 | 68 | 229 | 4.0 | 9.0 | 0.00 | 0.00 | 0.06 | 73 | 1007.7 |
| 20260506195517 | 68 | 252 | 7.0 | 17.0 | 0.00 | 0.00 | 0.06 | 74 | 1007.7 |
| 20260506195017 | 68 | 247 | 5.0 | 7.0 | 0.00 | 0.00 | 0.06 | 74 | 1007.7 |
| 20260506194517 | 68 | 246 | 6.0 | 11.0 | 0.00 | 0.00 | 0.06 | 74 | 1007.8 |
| 20260506194017 | 68 | 247 | 6.0 | 9.0 | 0.00 | 0.00 | 0.06 | 74 | 1007.8 |
| 20260506193518 | 67 | 239 | 4.0 | 8.0 | 0.00 | 0.00 | 0.06 | 75 | 1008.0 |
| 20260506193018 | 67 | 227 | 3.0 | 5.0 | 0.00 | 0.00 | 0.06 | 76 | 1008.1 |
| 20260506192521 | 67 | 241 | 10.0 | 17.0 | 0.00 | 0.00 | 0.06 | 76 | 1008.2 |
| 20260506192017 | 67 | 241 | 2.0 | 4.0 | 0.00 | 0.00 | 0.06 | 76 | 1008.2 |
| 20260506191519 | 67 | 239 | 5.0 | 12.0 | 0.00 | 0.00 | 0.06 | 76 | 1008.2 |
| 20260506191018 | 67 | 237 | 3.0 | 6.0 | 0.00 | 0.00 | 0.06 | 76 | 1008.2 |
| 20260506190517 | 67 | 262 | 6.0 | 12.0 | 0.00 | 0.00 | 0.06 | 76 | 1008.2 |
| 20260506190018 | 67 | 258 | 4.0 | 7.0 | 0.00 | 0.00 | 0.06 | 77 | 1008.1 |
| 20260506185518 | 67 | 253 | 4.0 | 7.0 | 0.00 | 0.00 | 0.06 | 77 | 1008.2 |
| 20260506185017 | 66 | 238 | 5.0 | 9.0 | 0.00 | 0.00 | 0.06 | 77 | 1008.3 |
| 20260506184518 | 66 | 238 | 6.0 | 11.0 | 0.00 | 0.00 | 0.06 | 77 | 1008.2 |
| 20260506184017 | 66 | 241 | 4.0 | 9.0 | 0.00 | 0.00 | 0.06 | 78 | 1008.3 |
| 20260506183518 | 66 | 252 | 2.0 | 6.0 | 0.00 | 0.00 | 0.06 | 78 | 1008.5 |
| 20260506183018 | 66 | 242 | 4.0 | 10.0 | 0.00 | 0.00 | 0.06 | 78 | 1008.4 |
| 20260506182517 | 66 | 251 | 7.0 | 11.0 | 0.00 | 0.00 | 0.06 | 78 | 1008.5 |
| 20260506182019 | 66 | 250 | 5.0 | 9.0 | 0.00 | 0.00 | 0.06 | 79 | 1008.5 |
| 20260506181517 | 66 | 239 | 5.0 | 9.0 | 0.00 | 0.00 | 0.06 | 78 | 1008.5 |
| 20260506181017 | 66 | 243 | 5.0 | 11.0 | 0.00 | 0.00 | 0.06 | 77 | 1008.6 |
| 20260506180517 | 66 | 264 | 9.0 | 12.0 | 0.00 | 0.00 | 0.06 | 76 | 1008.5 |
| 20260506180018 | 66 | 242 | 4.0 | 6.0 | 0.00 | 0.00 | 0.06 | 76 | 1008.6 |
| 20260506175517 | 66 | 253 | 6.0 | 12.0 | 0.01 | 0.00 | 0.06 | 75 | 1008.5 |
| 20260506175018 | 66 | 254 | 4.0 | 10.0 | 0.01 | 0.00 | 0.06 | 76 | 1008.6 |
| 20260506174517 | 66 | 233 | 7.0 | 14.0 | 0.01 | 0.00 | 0.06 | 76 | 1008.6 |
| 20260506174017 | 66 | 242 | 5.0 | 11.0 | 0.02 | 0.00 | 0.06 | 76 | 1008.6 |
| 20260506173518 | 66 | 237 | 5.0 | 8.0 | 0.02 | 0.00 | 0.06 | 77 | 1008.7 |
| 20260506173018 | 66 | 246 | 4.0 | 9.0 | 0.03 | 0.00 | 0.06 | 77 | 1008.8 |
| 20260506172517 | 66 | 236 | 2.0 | 6.0 | 0.03 | 0.00 | 0.07 | 77 | 1008.8 |
| 20260506172017 | 66 | 244 | 4.0 | 9.0 | 0.04 | 0.00 | 0.07 | 77 | 1008.9 |
| 20260506171517 | 66 | 241 | 4.0 | 7.0 | 0.04 | 0.00 | 0.07 | 77 | 1008.9 |
| 20260506171018 | 66 | 244 | 8.0 | 14.0 | 0.04 | 0.00 | 0.07 | 77 | 1008.9 |
| 20260506170518 | 67 | 244 | 5.0 | 9.0 | 0.05 | 0.00 | 0.07 | 77 | 1008.7 |
| 20260506170017 | 67 | 228 | 4.0 | 10.0 | 0.05 | 0.00 | 0.07 | 77 | 1008.9 |
| 20260506165518 | 67 | 236 | 4.0 | 6.0 | 0.04 | 0.00 | 0.07 | 77 | 1008.8 |
| 20260506165017 | 67 | 243 | 4.0 | 7.0 | 0.04 | 0.00 | 0.06 | 78 | 1009.0 |
| 20260506164517 | 67 | 248 | 4.0 | 10.0 | 0.04 | 0.00 | 0.06 | 79 | 1008.9 |
| 20260506164017 | 67 | 249 | 6.0 | 11.0 | 0.03 | 0.00 | 0.06 | 78 | 1009.0 |
| 20260506163517 | 67 | 231 | 3.0 | 7.0 | 0.04 | 0.00 | 0.06 | 79 | 1009.0 |
| 20260506163018 | 66 | 250 | 3.0 | 7.0 | 0.04 | 0.00 | 0.05 | 78 | 1009.2 |
| 20260506162518 | 66 | 239 | 5.0 | 12.0 | 0.04 | 0.00 | 0.06 | 77 | 1009.4 |
| 20260506162018 | 66 | 251 | 3.0 | 6.0 | 0.03 | 0.00 | 0.06 | 78 | 1009.5 |
| 20260506161518 | 67 | 255 | 6.0 | 9.0 | 0.03 | 0.00 | 0.05 | 76 | 1009.8 |
| 20260506161017 | 67 | 250 | 4.0 | 8.0 | 0.03 | 0.00 | 0.04 | 75 | 1010.0 |
| 20260506160517 | 67 | 255 | 5.0 | 8.0 | 0.03 | 0.00 | 0.03 | 75 | 1010.1 |
| 20260506160018 | 67 | 277 | 2.0 | 6.0 | 0.02 | 0.00 | 0.03 | 74 | 1010.1 |
| 20260506155517 | 67 | 235 | 3.0 | 4.0 | 0.02 | 0.00 | 0.03 | 73 | 1010.2 |
| 20260506155021 | 67 | 256 | 4.0 | 6.0 | 0.02 | 0.00 | 0.03 | 72 | 1010.1 |
| 20260506154517 | 67 | 276 | 3.0 | 6.0 | 0.01 | 0.00 | 0.02 | 73 | 1010.3 |
| 20260506154019 | 67 | 255 | 5.0 | 9.0 | 0.01 | 0.00 | 0.02 | 72 | 1010.2 |
| 20260506153518 | 68 | 255 | 6.0 | 15.0 | 0.01 | 0.00 | 0.02 | 70 | 1010.2 |
| 20260506153017 | 68 | 236 | 4.0 | 10.0 | 0.01 | 0.00 | 0.01 | 70 | 1010.2 |
| 20260506152518 | 68 | 249 | 7.0 | 12.0 | 0.01 | 0.00 | 0.01 | 68 | 1010.1 |
| 20260506152018 | 69 | 263 | 4.0 | 7.0 | 0.00 | 0.00 | 0.01 | 67 | 1010.0 |
| 20260506151517 | 69 | 311 | 8.0 | 14.0 | 0.00 | 0.00 | 0.01 | 65 | 1010.0 |
| 20260506151017 | 69 | 254 | 6.0 | 11.0 | 0.00 | 0.00 | 0.01 | 64 | 1010.1 |
| 20260506150517 | 70 | 211 | 6.0 | 13.0 | 0.00 | 0.00 | 0.00 | 64 | 1009.9 |
| 20260506150019 | 70 | 254 | 7.0 | 10.0 | 0.00 | 0.00 | 0.00 | 64 | 1009.8 |
| 20260506145518 | 70 | 249 | 6.0 | 13.0 | 0.00 | 0.00 | 0.00 | 64 | 1009.9 |
| 20260506145018 | 70 | 238 | 4.0 | 11.0 | 0.00 | 0.00 | 0.00 | 63 | 1009.9 |
| 20260506144519 | 70 | 241 | 4.0 | 8.0 | 0.00 | 0.00 | 0.00 | 64 | 1010.1 |
| 20260506144017 | 70 | 236 | 4.0 | 7.0 | 0.00 | 0.00 | 0.00 | 63 | 1010.1 |
| 20260506143517 | 70 | 255 | 4.0 | 8.0 | 0.00 | 0.00 | 0.00 | 63 | 1010.1 |
| 20260506143018 | 70 | 256 | 6.0 | 11.0 | 0.00 | 0.00 | 0.00 | 62 | 1010.1 |
| 20260506142519 | 70 | 255 | 8.0 | 11.0 | 0.00 | 0.00 | 0.00 | 62 | 1010.1 |